Other Public Products
Issued by NWS Grand Forks, ND

Home | Current Version | Previous Version | Text Only | Print | Product List | Glossary Off
Versions: 1 2 3 4 5 6 7 8 9 10 11 12 13 14 15 16 17 18 19 20 21 22 23 24 25 26 27 28 29 30 31 32 33 34 35 36 37 38 39 40 41 42 43 44 45 46 47 48 49 50

541
FPUS83 KFGF 270931
OPUFGF
PRAIRIE TO PINES WEATHER ROUNDUP
NATIONAL WEATHER SERVICE EASTERN NORTH DAKOTA/GRAND FORKS ND
300 AM CST MON FEB 27 2017

 **SATELLITE DATA USED TO AUGMENT SKY COVER AT AUTOMATED STATIONS**
 *****  WEATHER ACROSS EASTERN NORTH DAKOTA  *****

CITY           SKY/WX    TMP DP  RH WIND       PRES   REMARKS
GRAND FORKS    FAIR       8   1  73 S6        29.91S WCI  -2
GRAND FORKS AF FAIR      10   4  79 SW6       29.90S WCI   0
GRAND CITY NWS NOT AVBL
BUXTON         NOT AVBL
DEVILS LAKE    FAIR      10   7  87 SW8       29.85S WCI  -2
FARGO          CLOUDY    21  15  78 S5        29.92S WCI  15
WAHPETON ARPT    N/A     19  14  79 N3        29.92S
$$

 *****  WEATHER ACROSS CENTRAL AND WESTERN NORTH DAKOTA  *****

CITY           SKY/WX    TMP DP  RH WIND       PRES   REMARKS
JAMESTOWN      MOCLDY    19  16  88 CALM      29.85F
BISMARCK       FAIR      11   8  88 NE6       29.85F WCI   1
MINOT          FAIR      14  10  84 SW12      29.80F WCI   0
MINOT AFB      FAIR      11   8  87 W13       29.81R WCI  -4
GARRISON         N/A      4   0  83 CALM      29.81S
WILLISTON      CLOUDY    12   7  80 N7        29.81F WCI   1
DICKINSON      CLOUDY    16  13  88 S5        29.74S WCI   9
HETTINGER      CLOUDY    20  16  84 SE6       29.76F WCI  12
$$

 *****  OTHER OBSERVATIONS NORTHEAST NORTH DAKOTA  *****

CITY           SKY/WX    TMP DP  RH WIND       PRES   REMARKS
WALHALLA       NOT AVBL
LANGDON        NOT AVBL
CAVALIER         N/A     10   7  85 S9        29.86S WCI  -2
GRAFTON        FAIR       9   5  85 S10       29.91S WCI  -6
CANDO          NOT AVBL
FORT TOTTEN      N/A     10   9  94 S7        29.95S WCI  -1
ROLLA          FAIR       9   7  92 W10       29.79F WCI  -6
RUGBY            N/A      7   5  92 S7        29.82S WCI  -5
 ***** THE ABOVE OBSERVATIONS ARE NON NWS ARE NOT QUALITY
        CONTROLLED AND MAY MIS-REPORT RAIN FOR SNOW...
$$

 *****  OTHER OBSERVATIONS SOUTHEAST NORTH DAKOTA *****

CITY           SKY/WX    TMP DP  RH WIND       PRES   REMARKS
COOPERSTOWN    FAIR       5   3  92 S5        29.87F WCI  -4
VALLEY CITY    CLOUDY    19  19 100 S3        29.89S
OAKES          NOT AVBL
GWINNER        CLOUDY    23  19  86 E6        29.89S WCI  16
SHEYENNE NWR     N/A     20  13  75 SE3       29.95S
BUFFALO        NOT AVBL
WYNDMERE         N/A     19  14  79 NE3         N/A
 ***** THE ABOVE OBSERVATIONS ARE NON NWS ARE NOT QUALITY
       CONTROLLED AND MAY MIS-REPORT RAIN FOR SNOW...
$$

  *****  WEATHER ACROSS NORTHERN MINNESOTA  *****

CITY           SKY/WX    TMP DP  RH WIND       PRES   REMARKS
FLAG ISLAND    MOCLDY     9   5  85 SW12      29.85R WCI  -6
WARROAD        FAIR       7   3  85 SW6       29.88R WCI  -3
ROSEAU         FAIR       7   1  78 S6        29.87S WCI  -3
HALLOCK          N/A     12   9  85 S9        29.88S WCI   0
THF RVR FALLS  FAIR       7   5  91 S5        29.90F WCI  -2
HALSTAD          N/A     15  12  87 S5          N/A  WCI   8
FOSSTON        FAIR       7   3  85 S6        29.90F WCI  -3
BAUDETTE       FAIR       7   2  80 S7        29.86S WCI  -5
WASKISH        FAIR       5   3  92 CALM      29.90S
CROOKSTON      FAIR      10   9  92 S3        29.93S
$$
  *****  WEATHER ACROSS CENTRAL AND WEST MINNESOTA  *****

CITY           SKY/WX    TMP DP  RH WIND       PRES   REMARKS
BEMIDJI        FAIR       1  -2  86 CALM      29.90S
PARK RAPIDS    CLOUDY    17   8  67 SE3       29.89S
WADENA         MIX PCPN  16  10  79 E3        29.89F
DETROIT LAKES  CLOUDY    19  14  79 SE3       29.90S
MOORHEAD       CLOUDY    19  12  73 CALM      29.93S
FERGUS FALLS   CLOUDY    19  12  73 W3        29.94F
ELBOW LAKE     CLOUDY    18  14  86 SE6       29.89F WCI   9
MORRIS MN      MOCLDY    21  18  86 NE7       29.88S WCI  13
STAPLES        CLOUDY    16  10  79 CALM      29.91S
WHEATON        FAIR      21  18  86 NE3       29.91F
$$
  *****  WEATHER ELSEWHERE ACROSS MINNESOTA  *****

CITY           SKY/WX    TMP DP  RH WIND       PRES   REMARKS
DULUTH         CLOUDY    15   3  59 SW7       29.92F WCI   5
INTRNTL FALLS  FAIR       2  -3  80 S5        29.89S WCI  -8
ELY            FAIR      -6  -9  84 CALM      29.92S
CLOQUET        CLOUDY    10   3  72 CALM      29.93S
BRAINERD       CLOUDY    18  11  74 CALM      29.92F
HIBBING        CLOUDY    -1  -5  82 NW3       29.92S
ALEXANDRIA     CLOUDY    21  18  88 E7        29.89S WCI  12
SAINT CLOUD    MOCLDY    25  17  72 NE5       29.91F WCI  19
MINNEAPOLIS    CLOUDY    26  21  81 SE6       29.95F WCI  19
$$

  *****  WEATHER ACROSS SOUTH DAKOTA  *****

CITY           SKY/WX    TMP DP  RH WIND       PRES   REMARKS
SIOUX FALLS    FAIR      26  20  77 S9        29.90F WCI  17
BROOKINGS      FAIR      24  19  81 S7        29.86S WCI  16
WATERTOWN      FAIR      23  20  88 S6        29.83S WCI  16
HURON          FAIR      22  19  89 SE5       29.85S WCI  16
SISSETON         N/A     21  20  96 E3        29.87F
ABERDEEN       CLOUDY    22  18  85 N6        29.85F WCI  14
MITCHELL       FAIR      25  18  74 CALM      29.88S
PIERRE         FAIR      22  14  71 S5        29.81R WCI  16
MOBRIDGE       FAIR      24  18  77 NE9       29.79F WCI  14
RAPID CITY     FAIR      24  16  71 SE8       29.70F WCI  15
$$

  *****  SOME WEATHER IN NEARBY STATES *****

CITY           SKY/WX    TMP DP  RH WIND       PRES   REMARKS
GLASGOW MT     LGT SNOW  17  13  84 NE9       29.77S FOG     WCI   6
GREAT FALLS MT LGT SNOW  15  11  83 NE8       29.67S FOG     WCI   4
CHEYENNE WY    FAIR       9   3  77 W7        29.69F WCI  -2
SCOTTSBLUFF NE FAIR      18   8  65 E12       29.76F WCI   5
OMAHA NE       FAIR      25  19  78 S5        29.99S WCI  19
DES MOINES IA  FAIR      31  21  66 NE3       30.01F
DAVENPORT IA   FAIR      27  22  81 E3        30.06F
CHICAGO IL     FAIR      33  24  69 W3        30.09R
EAU CLAIRE WI  CLOUDY    25  20  81 S3        29.98F
LA CROSSE WI   FAIR      26  22  84 S7        30.03F WCI  18
$$

  *****  SOME NATIONAL WEATHER *****

CITY           SKY/WX    TMP DP  RH WIND       PRES   REMARKS
LA GUARDIA NY  FAIR      38  17  42 S10       30.32R
RALEIGH NC     FAIR      36  24  62 CALM      30.33S
ATLANTA GA     MOCLDY    48  25  40 SE6       30.21R
NEW ORLEANS LA CLOUDY    67  61  81 SE9       30.04F
OKLAHOMA CITY  FAIR      43  37  79 SE9       29.91F
ALBUQUERQUE NM FAIR      32  22  66 SE8       29.93F WCI  25
SALT LAKE CITY MOCLDY    40  22  48 S22G30    29.60R
LOS ANGELES CA MOCLDY    50  45  83 E8        29.96F
BOISE ID       CLOUDY    31  22  69 SE13      29.64S WCI  21
SEATTLE WA     CLOUDY    36  35  96 S3        29.76R
$$

*** WEATHER ACROSS MANITOBA...SASKATCHEWAN AND ONTARIO ***
                ***ONTARIO***

CITY           SKY/WX    TMP DP  RH WIND       PRES   REMARKS
GERALDTON      CLEAR     -4  -8  84 SW5       29.88R WCI -15
THUNDER BAY    CLEAR      0  -4  85 W5        29.98R WCI -10
SIOUX LOOKOUT  FLURRIES   7   1  78 S7        29.82S WCI  -5
TORONTO        PTCLDY    37  21  52 SW15      30.05R
BIG TROUT LK   CLEAR    -15 -18  84 SW3       29.77R
PICKLE LAKE    NOT AVBL
DRYDEN         FLURRIES  10   5  79 SW7       29.81S WCI   0
KENORA         FLURRIES  10   5  79 S8        29.81S WCI  -1
$$
                *** MANITOBA***

CITY           SKY/WX    TMP DP  RH WIND       PRES   REMARKS
BRANDON        MOCLDY     5   1  85 W6        29.78S WCI  -6
DAUPHIN        LGT SNOW   9   5  85 NE8       29.82S WCI  -4
ISLAND LAKE    PTCLDY   -17 -22  76 CALM      29.80R
PILOT MOUND      N/A      1  -2  85 S7          N/A  WCI -11
THE PAS        CLEAR    -11 -17  77 NW2       29.86R
THOMPSON       CLEAR    -27 -35  68 W3        29.82
WINNIPEG       CLEAR     10   7  85 SW7       29.84R WCI   0
LYNN LAKE      FLURRIES -26 -31  75 W8        29.78S WCI -45
CHURCHILL      CRYSTALS -29 -35  75 W8        29.77R WCI -50
GILLAM         CLEAR    -22 -27  76 W6        29.80S WCI -38
$$
                ***SASKATCHEWAN***

CITY           SKY/WX    TMP DP  RH WIND       PRES   REMARKS
ESTEVAN        MOCLDY     9   1  72 NW13      29.82R WCI  -7
KINDERSLEY     CLEAR     -4  -8  84 SW3       29.79F
LLOYDMINSTER   CLEAR     -6  -9  84 S9        29.74F WCI -22
PRINCE ALBERT  FLURRIES  -6 -11  77 NW3       29.85S
REGINA         PTCLDY     1  -2  85 W8        29.83R WCI -12
YORKTON        CLEAR     -2  -4  92 NW7       29.80R WC



USA.gov is the U.S. government's official web portal to all federal, state and local government web resources and services.